Stations météo

réclame
Mon MeteoGroup
Emden, Allemagne (10200): Température de l'air & dewpoint: 19.04.2018 07:00:00 - 25.04.2018 07:00:00 (CEST)Emden, Allemagne (10200): Température de l'air 5cm & Température de l'air -5cm: 19.04.2018 07:00:00 - 25.04.2018 07:00:00 (CEST)Emden, Allemagne (10200): Température de l'air -20cm & Température de l'air -100cm: 19.04.2018 07:00:00 - 25.04.2018 07:00:00 (CEST)Emden, Allemagne (10200): Vitesse du vent & gusts: 19.04.2018 07:00:00 - 25.04.2018 07:00:00 (CEST)Emden, Allemagne (10200): Direction du vent: 19.04.2018 07:00:00 - 25.04.2018 07:00:00 (CEST)Emden, Allemagne (10200): reduced air pressure: 19.04.2018 07:00:00 - 25.04.2018 07:00:00 (CEST)Emden, Allemagne (10200): visibility: 19.04.2018 07:00:00 - 25.04.2018 07:00:00 (CEST)Emden, Allemagne (10200): Ensoleillement: 19.04.2018 07:00:00 - 25.04.2018 07:00:00 (CEST)Emden, Allemagne (10200): Quantités de précipitations: 19.04.2018 07:00:00 - 25.04.2018 07:00:00 (CEST)
Date & Time tt [°C] td [°C] tt 5cm [°C] tt -5cm [°C] tt -20cm [°C] tt -100cm [°C] ff [km/h] ff [knt] fx [km/h] fx [knt] dd ppp [hPa] vv [km] sd [min] rr [mm]
25.04.2018 07:00:00 - - - - - - - - - - - - - - -
25.04.2018 06:00:00 12,0 10,6 11,4 11,6 12,4 8,6 23 12 46 25 SW 1001,8 21 0 0,5
25.04.2018 05:00:00 12,4 10,5 11,6 11,6 12,4 8,6 18 10 44 24 SW 1002,4 13 0 0,1
25.04.2018 04:00:00 12,5 10,9 11,7 11,5 12,5 8,6 20 11 37 20 SSW 1003,2 13 0 0,0
25.04.2018 03:00:00 11,8 10,9 11,3 11,3 12,6 8,6 19 10 34 19 SSW 1004,1 7 0 1,0
25.04.2018 02:00:00 10,9 10,5 10,6 11,1 12,7 8,6 17 9 29 15 S 1005,2 1,6 0 0,9
25.04.2018 01:00:00 9,7 9,4 9,5 11,1 12,8 8,6 12 7 20 11 SE 1006,9 4,0 0 0,3
25.04.2018 00:00:00 9,3 9,1 9,2 11,2 13,0 8,6 14 8 18 10 SE 1008,6 3,6 0 1,7
24.04.2018 23:00:00 9,1 8,8 9,0 11,5 13,1 8,6 9 5 12 6 SE 1009,9 3,6 0 2,4
24.04.2018 22:00:00 9,2 8,8 9,2 11,9 13,2 8,6 5 3 8 5 ESE 1010,9 4,9 0 1,4
24.04.2018 21:00:00 9,5 8,5 9,3 12,4 13,2 8,6 0 0 8 4 N 1011,6 9 0 1,3
24.04.2018 20:00:00 9,8 7,7 9,5 13,0 13,2 8,5 6 3 20 11 WNW 1011,9 9 0 0,5
24.04.2018 19:00:00 11,3 6,4 11,6 13,8 13,2 8,5 16 9 30 16 WNW 1012,3 33 0 0,0
24.04.2018 18:00:00 12,1 6,6 13,2 14,5 13,0 8,5 19 10 35 19 WNW 1012,9 30 0 0,0
24.04.2018 17:00:00 12,7 6,3 14,9 15,3 12,8 8,5 22 12 44 24 WNW 1013,0 37 20 0,0
24.04.2018 16:00:00 13,1 6,5 16,3 15,6 12,7 8,5 27 14 42 23 WNW 1013,2 18 25 0,0
24.04.2018 15:00:00 13,9 8,7 15,0 14,4 12,6 8,5 18 10 34 18 WSW 1013,2 19 6 0,0
24.04.2018 14:00:00 12,6 6,9 12,8 12,5 12,6 8,5 23 12 36 19 W 1013,6 43 0 0,0
24.04.2018 13:00:00 12,4 8,7 12,5 13,2 12,5 8,5 23 12 34 19 W 1013,3 25 1 0,0
24.04.2018 12:00:00 12,0 9,3 12,0 12,3 12,5 8,5 18 10 34 18 W 1012,9 20 0 0,0
24.04.2018 11:00:00 12,5 9,2 13,0 12,5 12,5 8,5 21 12 37 20 WSW 1012,8 26 0 0,0
24.04.2018 10:00:00 11,9 8,8 12,2 11,4 12,5 8,5 16 9 33 18 WSW 1012,3 19 0 0,0
24.04.2018 09:00:00 10,6 8,7 10,8 11,1 12,6 8,5 16 9 34 18 SW 1012,1 11 0 0,0
24.04.2018 08:00:00 10,0 8,7 9,9 10,7 12,7 8,4 19 11 32 18 SSW 1011,7 8 0 0,0
24.04.2018 07:00:00 10,3 7,9 10,2 10,5 12,8 8,4 16 9 31 17 SSW 1011,3 16 0 0,0
24.04.2018 06:00:00 10,2 7,4 9,9 10,5 13,0 8,4 23 12 40 21 SSW 1011,6 15 0 0,0
24.04.2018 05:00:00 10,4 7,1 10,1 10,4 13,1 8,4 20 11 37 20 SSW 1011,9 21 0 0,0
24.04.2018 04:00:00 10,3 6,6 10,0 10,3 13,3 8,4 20 11 36 20 SSW 1012,0 27 0 0,0
24.04.2018 03:00:00 10,2 6,3 9,7 10,3 13,6 8,4 19 11 31 17 SSW 1012,5 30 0 0,0
24.04.2018 02:00:00 9,6 6,4 8,7 10,3 13,8 8,4 13 7 26 14 S 1013,1 22 0 0,0
24.04.2018 01:00:00 10,2 6,6 9,3 10,7 14,1 8,4 10 5 19 10 SSW 1013,8 23 0 0,0
24.04.2018 00:00:00 10,6 6,1 9,0 11,0 14,3 8,4 11 6 25 13 SW 1014,6 29 0 0,0
23.04.2018 23:00:00 10,7 5,7 8,7 11,4 14,6 8,4 7 4 13 7 SW 1014,5 33 0 0,0
23.04.2018 22:00:00 10,5 5,1 8,9 12,0 14,8 8,4 9 5 16 8 SW 1014,6 50 0 0,0
23.04.2018 21:00:00 10,9 5,6 9,6 13,1 15,0 8,3 10 6 23 12 WSW 1014,8 44 0 0,0
23.04.2018 20:00:00 11,6 6,1 10,8 14,4 15,1 8,3 18 10 35 19 W 1014,5 33 30 0,0
23.04.2018 19:00:00 11,9 6,9 11,9 15,5 15,1 8,3 17 9 36 19 W 1014,8 45 9 0,0
23.04.2018 18:00:00 12,8 7,5 14,1 16,5 15,1 8,3 19 11 34 18 WNW 1014,7 31 14 0,0
23.04.2018 17:00:00 12,9 7,9 15,1 17,4 15,0 8,3 21 11 39 21 WNW 1014,4 21 21 0,0
23.04.2018 16:00:00 13,8 8,7 16,3 17,8 14,8 8,3 21 12 35 19 WNW 1014,2 19 6 0,0
23.04.2018 15:00:00 13,9 8,5 16,5 18,9 14,6 8,3 18 10 34 18 WNW 1014,0 36 23 0,0
23.04.2018 14:00:00 14,7 9,2 17,7 18,3 14,5 8,3 20 11 38 21 WNW 1013,7 23 21 0,0
23.04.2018 13:00:00 14,8 7,8 16,0 17,6 14,3 8,3 27 15 41 22 W 1013,2 34 21 0,0
23.04.2018 12:00:00 14,9 7,7 17,3 17,7 14,1 8,3 21 11 37 20 W 1013,0 21 33 0,0
23.04.2018 11:00:00 14,5 7,4 17,5 17,6 13,9 8,3 23 13 31 17 W 1012,6 6 57 0,0
23.04.2018 10:00:00 13,4 8,9 16,4 15,3 13,9 8,2 20 11 32 18 W 1012,0 16 39 0,0
23.04.2018 09:00:00 12,0 9,8 12,7 13,5 14,0 8,2 22 12 34 18 W 1011,1 8 9 0,0
23.04.2018 08:00:00 12,3 10,8 12,4 12,7 14,1 8,2 16 9 31 17 WSW 1010,3 4,1 0 0,0
23.04.2018 07:00:00 12,4 10,6 12,1 12,3 14,3 8,2 15 8 25 13 W 1009,6 5 0 0,0
23.04.2018 06:00:00 12,9 10,6 12,3 12,6 14,5 8,2 11 6 22 12 WSW 1009,1 6 0 0,0
23.04.2018 05:00:00 13,0 10,3 12,2 12,7 14,7 8,2 13 7 25 13 WSW 1008,7 7 0 0,0
23.04.2018 04:00:00 13,8 10,1 12,5 12,9 14,9 8,2 16 9 25 14 WSW 1008,6 13 0 0,0
23.04.2018 03:00:00 14,7 9,8 13,0 13,5 15,1 8,2 14 8 26 14 SW 1007,9 20 0 0,0
23.04.2018 02:00:00 15,2 11,9 13,8 14,0 15,3 8,2 15 8 25 14 SSW 1008,2 9 0 0,0
23.04.2018 01:00:00 16,2 11,9 14,5 14,5 15,4 8,2 14 8 23 13 SSW 1008,1 11 0 0,0
23.04.2018 00:00:00 15,7 13,8 14,3 15,1 15,6 8,2 14 7 29 15 S 1008,2 8 0 0,0
22.04.2018 23:00:00 15,8 12,8 14,4 15,7 15,7 8,1 14 8 23 13 S 1008,6 19 0 0,0
22.04.2018 22:00:00 16,7 13,1 15,0 16,7 15,7 8,1 11 6 39 21 SSW 1008,8 19 0 0,2
22.04.2018 21:00:00 18,3 13,6 15,7 18,0 15,6 8,1 16 9 41 22 S 1008,8 8 0 0,1
22.04.2018 20:00:00 20,2 13,8 17,7 18,9 15,4 8,1 15 8 31 17 SE 1007,6 16 20 1,7
22.04.2018 19:00:00 22,2 15,0 22,5 19,4 15,1 8,1 12 6 21 11 E 1007,5 13 51 0,0
22.04.2018 18:00:00 23,3 13,3 23,1 19,9 14,7 8,1 14 8 24 13 ESE 1008,2 16 58 0,0
22.04.2018 17:00:00 23,1 13,3 25,1 20,0 14,4 8,1 18 10 28 15 ESE 1008,8 19 57 0,0
22.04.2018 16:00:00 21,9 11,0 24,3 19,8 13,9 8,1 20 11 34 18 ESE 1010,0 14 52 0,0
22.04.2018 15:00:00 21,6 9,4 24,7 19,7 13,5 8,1 24 13 34 19 SE 1010,8 17 60 0,0
22.04.2018 14:00:00 21,1 9,1 23,8 19,0 13,1 8,1 25 13 35 19 E 1011,5 8 57 0,0
22.04.2018 13:00:00 20,0 8,0 22,7 18,3 12,7 8,1 23 12 31 17 E 1012,5 26 57 0,0
22.04.2018 12:00:00 19,0 9,4 21,4 17,1 12,4 8,0 23 13 30 16 E 1013,2 19 60 0,0
22.04.2018 11:00:00 16,6 7,7 19,0 15,3 12,2 8,0 20 11 29 15 E 1014,1 9 60 0,0
22.04.2018 10:00:00 14,4 7,5 16,1 13,1 12,2 8,0 19 11 29 15 ESE 1014,8 12 60 0,0
22.04.2018 09:00:00 11,7 7,0 12,9 10,7 12,3 8,0 15 8 21 11 E 1015,3 13 58 0,0
22.04.2018 08:00:00 9,0 6,1 8,1 9,1 12,5 8,0 11 6 16 9 E 1016,0 29 47 0,0
22.04.2018 07:00:00 6,5 4,7 5,0 8,1 12,8 8,0 9 5 13 7 ESE 1016,6 18 0 0,0
22.04.2018 06:00:00 5,7 4,7 3,8 8,2 13,1 8,0 10 5 13 7 E 1016,9 14 0 0,0
22.04.2018 05:00:00 6,4 5,2 2,3 8,6 13,4 8,0 6 3 11 6 E 1017,9 19 0 0,0
22.04.2018 04:00:00 6,0 5,2 2,9 9,0 13,7 8,0 8 4 11 6 ESE 1018,1 14 0 0,0
22.04.2018 03:00:00 5,9 5,2 2,9 9,3 14,0 8,0 8 4 9 5 E 1018,8 15 0 0,0
22.04.2018 02:00:00 6,6 5,4 2,8 9,9 14,4 7,9 6 3 11 6 E 1019,4 20 0 0,0
22.04.2018 01:00:00 6,3 5,0 3,6 10,5 14,7 7,9 9 5 13 7 ENE 1019,9 21 0 0,0
22.04.2018 00:00:00 8,0 6,3 3,8 11,2 15,1 7,9 3 2 5 3 NE 1020,3 26 0 0,0
21.04.2018 23:00:00 8,2 5,9 4,2 12,1 15,4 7,9 5 3 9 5 E 1020,5 29 0 0,0
21.04.2018 22:00:00 9,5 6,2 4,4 13,1 15,6 7,9 4 2 8 4 NE 1020,8 33 0 0,0
21.04.2018 21:00:00 10,8 5,9 8,8 14,2 15,8 7,9 7 4 16 9 NE 1021,0 34 0 0,0
21.04.2018 20:00:00 12,9 6,4 12,0 15,8 15,8 7,9 10 5 17 9 NNE 1021,1 31 27 0,0
21.04.2018 19:00:00 15,5 6,7 16,6 17,4 15,8 7,9 11 6 18 10 N 1021,4 34 60 0,0
21.04.2018 18:00:00 16,2 5,4 19,1 19,1 15,6 7,9 12 6 20 11 NNW 1021,7 20 60 0,0
21.04.2018 17:00:00 16,6 5,3 20,2 20,4 15,3 7,9 12 7 21 11 N 1022,1 15 60 0,0
21.04.2018 16:00:00 17,6 7,3 22,4 21,2 15,0 7,9 11 6 22 12 NNW 1022,8 23 60 0,0
21.04.2018 15:00:00 16,8 6,4 22,3 21,8 14,5 7,9 15 8 22 12 NNW 1023,2 17 60 0,0
21.04.2018 14:00:00 17,1 5,2 22,9 21,7 14,1 7,9 10 5 21 12 NNW 1023,2 20 60 0,0
21.04.2018 13:00:00 16,9 5,8 22,1 20,5 13,7 7,8 9 5 16 9 N 1023,6 30 60 0,0
21.04.2018 12:00:00 16,3 7,2 20,8 19,2 13,4 7,8 10 5 21 11 N 1023,9 22 60 0,0
21.04.2018 11:00:00 14,5 8,0 19,1 17,2 13,2 7,8 9 5 18 10 N 1023,8 13 60 0,0
21.04.2018 10:00:00 13,7 8,4 18,1 15,0 13,1 7,8 9 5 13 7 NW 1023,5 25 60 0,0
21.04.2018 09:00:00 11,5 9,0 15,4 12,6 13,2 7,8 8 4 11 6 NNW 1023,2 9 60 0,0
21.04.2018 08:00:00 9,3 7,1 9,9 10,5 13,5 7,8 3 1 9 5 WNW 1022,9 5 60 0,0
21.04.2018 07:00:00 7,7 7,2 6,5 9,7 13,8 7,8 8 4 10 6 NNW 1022,4 3,1 3 0,0
21.04.2018 06:00:00 8,2 7,7 6,6 10,1 14,1 7,8 8 4 14 7 NW 1022,1 3,5 0 0,0
21.04.2018 05:00:00 8,3 7,5 6,6 10,6 14,4 7,8 11 6 14 8 NNW 1022,1 3,0 0 0,0
21.04.2018 04:00:00 8,9 8,0 7,6 11,1 14,8 7,8 8 4 10 6 NW 1022,1 2,4 0 0,0
21.04.2018 03:00:00 9,1 8,1 7,8 11,7 15,1 7,8 6 3 12 7 NNW 1022,0 1,9 0 0,0
21.04.2018 02:00:00 9,4 8,2 8,6 12,3 15,4 7,8 9 5 19 11 NW 1021,9 1,8 0 0,0
21.04.2018 01:00:00 9,3 8,2 8,3 13,0 15,7 7,7 7 4 13 7 WNW 1021,9 1,1 0 0,0
21.04.2018 00:00:00 10,3 9,0 8,9 13,7 16,1 7,7 8 4 9 5 W 1021,5 1,4 0 0,0
20.04.2018 23:00:00 10,5 8,7 9,4 14,6 16,3 7,7 8 4 13 7 WNW 1021,5 1,5 0 0,0
20.04.2018 22:00:00 12,0 9,6 10,0 15,6 16,6 7,7 8 4 11 6 NW 1021,5 2,3 0 0,0
20.04.2018 21:00:00 13,5 9,9 12,2 16,8 16,7 7,7 6 3 20 11 W 1021,0 3,2 0 0,0
20.04.2018 20:00:00 16,0 9,6 15,3 18,5 16,8 7,7 16 9 26 14 NW 1020,8 4,7 49 0,0
20.04.2018 19:00:00 19,8 10,1 20,2 20,7 16,6 7,7 16 9 30 16 WNW 1020,8 7 54 0,0
20.04.2018 18:00:00 22,3 10,4 23,4 22,5 16,3 7,7 14 7 23 13 WNW 1021,0 14 60 0,0
20.04.2018 17:00:00 23,0 12,7 25,1 23,9 15,9 7,7 13 7 21 11 W 1021,1 8 60 0,0
20.04.2018 16:00:00 23,3 13,4 26,7 24,3 15,4 7,7 10 5 19 11 WNW 1021,4 6 60 0,0
20.04.2018 15:00:00 23,7 14,3 26,7 24,3 14,9 7,7 13 7 25 13 W 1021,6 9 60 0,0
20.04.2018 14:00:00 23,1 12,8 26,4 23,6 14,4 7,7 12 6 23 12 W 1021,7 11 60 0,0
20.04.2018 13:00:00 23,0 12,4 26,1 22,2 14,0 7,7 15 8 24 13 W 1022,0 10 60 0,0
20.04.2018 12:00:00 21,7 11,4 24,2 20,7 13,6 7,7 16 8 22 12 W 1022,1 9 60 0,0
20.04.2018 11:00:00 20,5 11,2 22,9 18,4 13,4 7,7 16 9 23 12 W 1021,9 9 60 0,0
20.04.2018 10:00:00 19,1 10,0 20,6 16,1 13,3 7,6 10 6 22 12 WSW 1021,7 18 60 0,0
20.04.2018 09:00:00 16,7 8,6 17,6 13,7 13,3 7,6 15 8 25 13 SSW 1021,5 26 60 0,0
20.04.2018 08:00:00 15,3 8,8 15,3 12,0 13,5 7,6 8 4 16 8 SSE 1021,7 10 60 0,0
20.04.2018 07:00:00 13,1 9,1 11,3 11,3 13,8 7,6 10 5 16 8 SSE 1021,6 7 7 0,0
20.04.2018 06:00:00 12,9 9,3 11,0 11,5 14,0 7,6 14 8 16 9 SSE 1021,9 8 0 0,0
20.04.2018 05:00:00 13,2 9,8 11,1 11,8 14,3 7,6 13 7 16 9 SSE 1022,4 7 0 0,0
20.04.2018 04:00:00 13,2 9,6 10,8 12,2 14,5 7,6 13 7 17 9 SSE 1023,0 8 0 0,0
20.04.2018 03:00:00 14,2 9,7 11,8 12,7 14,8 7,6 14 8 16 9 SE 1023,4 10 0 0,0
20.04.2018 02:00:00 15,2 9,6 12,9 13,2 15,1 7,6 11 6 18 10 SE 1024,2 12 0 0,0
20.04.2018 01:00:00 15,6 9,9 12,8 13,8 15,3 7,6 14 8 17 9 SE 1024,8 13 0 0,0
20.04.2018 00:00:00 16,3 9,9 13,2 14,5 15,5 7,6 14 7 17 9 SE 1025,0 16 0 0,0
19.04.2018 23:00:00 17,2 10,4 13,9 15,3 15,7 7,6 14 8 16 9 SE 1025,1 13 0 0,0
19.04.2018 22:00:00 18,2 11,6 15,6 16,3 15,9 7,6 14 7 27 14 SE 1025,2 13 0 0,0
19.04.2018 21:00:00 20,0 12,1 17,7 17,4 15,9 7,6 17 9 24 13 ESE 1025,0 16 3 0,0
19.04.2018 20:00:00 22,2 12,7 20,8 18,7 15,8 7,6 19 10 28 15 ESE 1025,2 17 60 0,0
19.04.2018 19:00:00 25,0 12,6 24,5 19,9 15,7 7,6 16 9 27 14 ESE 1025,6 14 56 0,0
19.04.2018 18:00:00 26,1 10,6 26,1 20,8 15,4 7,5 18 10 31 17 ESE 1026,0 12 60 0,0
19.04.2018 17:00:00 26,7 11,4 27,4 22,0 15,0 7,5 16 9 29 16 ESE 1026,5 13 60 0,0
19.04.2018 16:00:00 26,6 11,4 28,4 22,6 14,5 7,5 19 10 31 17 ESE 1027,0 11 60 0,0
19.04.2018 15:00:00 26,1 11,6 28,1 22,7 14,0 7,5 19 11 27 15 ESE 1027,7 10 60 0,0
19.04.2018 14:00:00 25,4 11,3 27,6 22,3 13,5 7,5 14 8 24 13 SE 1027,9 8 60 0,0
19.04.2018 13:00:00 24,4 13,4 26,9 21,1 13,0 7,5 16 9 25 14 SE 1028,5 9 60 0,0
19.04.2018 12:00:00 22,5 13,1 24,1 19,5 12,6 7,5 16 8 22 12 SE 1029,0 16 60 0,0
19.04.2018 11:00:00 20,5 11,6 22,8 17,4 12,3 7,5 14 8 19 11 SE 1029,1 12 60 0,0
19.04.2018 10:00:00 18,6 11,5 20,3 15,0 12,2 7,5 16 9 20 11 SE 1029,0 7 60 0,0
19.04.2018 09:00:00 16,2 10,6 17,0 12,7 12,3 7,5 11 6 19 10 SE 1029,1 9 60 0,0
19.04.2018 08:00:00 13,0 9,2 13,1 10,6 12,5 7,5 10 6 13 7 SE 1029,0 10 60 0,0
19.04.2018 07:00:00 11,3 8,3 8,4 9,9 12,8 7,5 6 3 13 7 ESE 1028,9 11 3 0,0

tt = Température de l'air
td = dewpoint
tt 5cm = Température de l'air 5cm
tt -5cm = Température de l'air -5cm
tt -20cm = Température de l'air -20cm
tt -100cm = Température de l'air -100cm
ff = Vitesse du vent
fx = gusts
dd = Direction du vent
ppp = reduced air pressure
vv = visibility
sd = Ensoleillement
rr = Quantités de précipitations

stations d'obs. à proximité